This is the latest recevied weather packets stored in our database for station/object KD8DNS. If no packets are shown the sender has not sent any weather packets the latest 10 day(s).
| Time | Temp. | Humidity | Pressure | Rain* | Wind** | Luminosity | Snow |
|---|---|---|---|---|---|---|---|
| 1788291291 | 34.44° C | 54% | 1020.5 hPa | 0 mm | - | 469 W/m² | - |
| 1788290990 | 34.44° C | 55% | 1020.2 hPa | 0 mm | - | 494 W/m² | - |
| 1788290686 | 34.44° C | 55% | 1020.9 hPa | 0 mm | - | 514 W/m² | - |
| 1788290382 | 34.44° C | 56% | 1020.8 hPa | 0 mm | - | 542 W/m² | - |
| 1788290077 | 34.44° C | 56% | 1020.9 hPa | 0 mm | - | 346 W/m² | - |
| 1788289774 | 34.44° C | 56% | 1020.9 hPa | 0 mm | - | 522 W/m² | - |
| 1788289474 | 34.44° C | 57% | 1020.8 hPa | 0 mm | - | 551 W/m² | - |
| 1788289171 | 34.44° C | 57% | 1021 hPa | 0 mm | - | 554 W/m² | - |
| 1788288866 | 34.44° C | 56% | 1021.1 hPa | 0 mm | - | 571 W/m² | - |
| 1788288566 | 34.44° C | 57% | 1021.1 hPa | 0 mm | - | 561 W/m² | - |
| 1788288261 | 33.89° C | 58% | 1021.1 hPa | 0 mm | - | 596 W/m² | - |
| 1788287956 | 33.89° C | 58% | 1021.3 hPa | 0 mm | - | 608 W/m² | - |
| 1788287656 | 33.89° C | 59% | 1021.2 hPa | 0 mm | - | 601 W/m² | - |
| 1788287352 | 33.89° C | 58% | 1021.4 hPa | 0 mm | - | 609 W/m² | - |
| 1788287047 | 34.44° C | 59% | 1021.1 hPa | 0 mm | - | 621 W/m² | - |
| 1788286742 | 33.89° C | 62% | 1021.2 hPa | 0 mm | - | 638 W/m² | - |
| 1788286436 | 33.89° C | 58% | 1021.3 hPa | 0 mm | - | 503 W/m² | - |
| 1788286135 | 33.89° C | 57% | 1021.4 hPa | 0 mm | - | 603 W/m² | - |
| 1788285834 | 33.89° C | 60% | 1021.5 hPa | 0 mm | - | 592 W/m² | - |
| 1788285533 | 34.44° C | 56% | 1021.5 hPa | 0 mm | - | 592 W/m² | - |
| 1788285228 | 33.89° C | 59% | 1021.4 hPa | 0 mm | - | 603 W/m² | - |
| 1788284923 | 33.89° C | 60% | 1021.6 hPa | 0 mm | - | 592 W/m² | - |
| 1788284619 | 33.89° C | 59% | 1021.6 hPa | 0 mm | - | 599 W/m² | - |
| 1788284315 | 33.33° C | 60% | 1021.7 hPa | 0 mm | - | 630 W/m² | - |
| 1788284009 | 33.33° C | 60% | 1021.8 hPa | 0 mm | - | 619 W/m² | - |
* Rain latest hour (hover to see other rain measurements)
** Current wind speed in m/s (hover to see current wind gust speed)